Regional Weather Roundup
Issued by NWS

Home | Current Version | Previous Version | Text Only | Print | Product List | Glossary On
Versions: 1 2 3 4 5 6 7 8 9 10 11 12 13 14 15 16 17 18 19 20 21 22 23 24 25 26 27 28 29 30 31 32 33 34 35 36 37 38 39 40 41 42 43 44 45 46 47 48 49 50
000
ASPQ40 PGUM 041014
RWRPQ
WEATHER ROUNDUP FOR THE MARIANAS AND MICRONESIA
NATIONAL WEATHER SERVICE TIYAN GU
800 PM CHST SAT JUL 04 2015

GUZ001>004-041100-
MARIANA ISLANDS-

CITY           SKY/WX    TMP DP  RH WIND       PRES   REMARKS
GUAM AIRPORT   LGT RAIN  81  77  89 N10       29.57R FOG
ANDERSEN AFB   LGT RAIN  77  73  88 N18G26    29.57R
ROTA AIRPORT   NOT AVBL
TINIAN AP      NOT AVBL
SAIPAN AP      LGT RAIN  81  77  89 E29G39    29.54S

$$

PMZ161-041100-
REPUBLIC OF PALAU-

CITY           SKY/WX    TMP DP  RH WIND       PRES   REMARKS
KOROR AP       CLOUDY    82  75  78 W10G20    29.78R
KOROR WSO      CLOUDY    82  77  83 SW12      29.78R HX  91

$$

PMZ171>174-041100-
FEDERATED STATES OF MICRONESIA-

CITY           SKY/WX    TMP DP  RH WIND       PRES   REMARKS
YAP AIRPORT    CLOUDY    82  73  74 W8        29.75R
CHUUK AP       CLOUDY    82  77  83 S12       29.72R HX  91
POHNPEI AP     NOT AVBL
POHNPEI WSO    NOT AVBL
KOSRAE AP      NOT AVBL

$$

PMZ181-041100-
REPUBLIC OF THE MARSHALL ISLANDS-

CITY           SKY/WX    TMP DP  RH WIND       PRES   REMARKS
KWAJALEIN AP   CLEAR     82  70  65 W13G20    29.70S
MAJURO AP      NOT AVBL
MAJURO WSO     MOCLDY    84  77  79 SW13      29.77R HX  94

$$



USA.gov is the U.S. government's official web portal to all federal, state and local government web resources and services.